Time,TemperatureF,DewpointF,PressureIn,WindDirection,WindDirectionDegrees,WindSpeedMPH,WindSpeedGustMPH,Humidity,HourlyPrecipIn,Conditions,Clouds,dailyrainin,SoftwareType,DateUTC
2013-03-29 00:00:00,42.9,32.9,30.10,NNE,15,5.7,222.7,67,0.00,,,0.00,VWS V14.01,2013-03-29 04:00:00,
2013-03-29 00:01:00,43.3,33.2,30.09,NW,318,0.0,222.7,67,0.00,,,0.00,VWS V14.01,2013-03-29 04:01:00,
2013-03-29 00:02:00,43.3,33.1,30.09,NW,305,0.0,222.7,67,0.00,,,0.00,VWS V14.01,2013-03-29 04:02:00,
2013-03-29 00:03:00,43.3,33.1,30.09,NW,305,0.0,222.7,67,0.00,,,0.00,VWS V14.01,2013-03-29 04:03:00,
2013-03-29 00:04:00,43.2,33.1,30.09,NW,305,0.0,222.7,67,0.00,,,0.00,VWS V14.01,2013-03-29 04:04:00,
2013-03-29 00:05:00,42.8,32.8,30.09,North,350,0.0,222.7,68,0.00,,,0.00,VWS V14.01,2013-03-29 04:05:00,
2013-03-29 00:06:00,42.8,32.8,30.10,NNW,332,4.3,222.7,67,0.00,,,0.00,VWS V14.01,2013-03-29 04:06:00,
2013-03-29 00:07:00,42.8,32.8,30.09,WNW,290,2.4,222.7,67,0.00,,,0.00,VWS V14.01,2013-03-29 04:07:00,
2013-03-29 00:08:00,42.8,32.8,30.10,NNW,330,9.6,222.7,67,0.00,,,0.00,VWS V14.01,2013-03-29 04:08:00,
2013-03-29 00:09:00,43.2,33.2,30.09,NW,326,11.2,222.7,68,0.00,,,0.00,VWS V14.01,2013-03-29 04:09:00,
2013-03-29 00:10:00,42.7,32.7,30.09,WNW,302,5.2,222.7,67,0.00,,,0.00,VWS V14.01,2013-03-29 04:10:00,
2013-03-29 00:12:00,42.7,32.7,30.10,North,359,0.0,222.7,67,0.00,,,0.00,VWS V14.01,2013-03-29 04:12:00,
2013-03-29 00:13:00,42.7,32.7,30.10,NNE,17,3.4,222.7,68,0.00,,,0.00,VWS V14.01,2013-03-29 04:13:00,
2013-03-29 00:14:00,43.0,33.0,30.09,NW,308,0.0,222.7,68,0.00,,,0.00,VWS V14.01,2013-03-29 04:14:00,
2013-03-29 00:15:00,42.7,32.8,30.10,North,359,5.8,222.7,68,0.00,,,0.00,VWS V14.01,2013-03-29 04:15:00,
2013-03-29 00:16:00,42.6,32.7,30.10,WNW,300,3.4,222.7,68,0.00,,,0.00,VWS V14.01,2013-03-29 04:16:00,
2013-03-29 00:17:00,42.6,32.7,30.10,NW,316,6.0,222.7,68,0.00,,,0.00,VWS V14.01,2013-03-29 04:17:00,
2013-03-29 00:18:00,42.6,32.7,30.10,WNW,294,4.7,222.7,68,0.00,,,0.00,VWS V14.01,2013-03-29 04:18:00,
2013-03-29 00:19:00,42.6,32.7,30.10,North,359,4.6,222.7,68,0.00,,,0.00,VWS V14.01,2013-03-29 04:19:00,
2013-03-29 00:20:00,43.1,33.0,30.09,NNW,328,0.0,222.7,67,0.00,,,0.00,VWS V14.01,2013-03-29 04:20:00,
2013-03-29 00:21:00,42.6,32.6,30.10,West,271,0.0,222.7,68,0.00,,,0.00,VWS V14.01,2013-03-29 04:21:00,
2013-03-29 00:22:00,42.6,32.8,30.10,West,271,0.0,222.7,68,0.00,,,0.00,VWS V14.01,2013-03-29 04:22:00,
2013-03-29 00:23:00,42.5,32.7,30.10,West,271,0.0,222.7,68,0.00,,,0.00,VWS V14.01,2013-03-29 04:23:00,
2013-03-29 00:24:00,42.5,32.7,30.10,West,271,0.0,222.7,68,0.00,,,0.00,VWS V14.01,2013-03-29 04:24:00,
2013-03-29 00:25:00,43.0,33.0,30.09,NNW,346,0.0,222.7,67,0.00,,,0.00,VWS V14.01,2013-03-29 04:25:00,
2013-03-29 00:27:00,42.5,32.7,30.10,NW,323,3.4,222.7,68,0.00,,,0.00,VWS V14.01,2013-03-29 04:27:00,
2013-03-29 00:28:00,42.5,32.7,30.10,NW,319,4.4,222.7,68,0.00,,,0.00,VWS V14.01,2013-03-29 04:28:00,
2013-03-29 00:29:00,42.5,32.7,30.10,NNW,329,3.2,222.7,68,0.00,,,0.00,VWS V14.01,2013-03-29 04:29:00,
2013-03-29 00:30:00,43.0,33.1,30.09,WNW,290,0.0,222.7,68,0.00,,,0.00,VWS V14.01,2013-03-29 04:30:00,
2013-03-29 00:31:00,42.4,32.6,30.10,West,278,0.0,222.7,68,0.00,,,0.00,VWS V14.01,2013-03-29 04:31:00,
2013-03-29 00:32:00,42.4,32.6,30.10,North,350,6.0,222.7,68,0.00,,,0.00,VWS V14.01,2013-03-29 04:32:00,
2013-03-29 00:33:00,42.4,32.6,30.10,NW,316,0.0,222.7,68,0.00,,,0.00,VWS V14.01,2013-03-29 04:33:00,
2013-03-29 00:34:00,42.4,32.6,30.10,NW,316,0.0,222.7,68,0.00,,,0.00,VWS V14.01,2013-03-29 04:34:00,
2013-03-29 00:35:00,42.4,32.6,30.10,NW,316,0.0,222.7,68,0.00,,,0.00,VWS V14.01,2013-03-29 04:35:00,
2013-03-29 00:36:00,43.0,33.0,30.09,North,359,4.5,222.7,68,0.00,,,0.00,VWS V14.01,2013-03-29 04:36:00,
2013-03-29 00:37:00,42.3,32.5,30.10,NW,308,0.0,222.7,68,0.00,,,0.00,VWS V14.01,2013-03-29 04:37:00,
2013-03-29 00:38:00,42.3,32.5,30.10,NW,308,0.0,222.7,68,0.00,,,0.00,VWS V14.01,2013-03-29 04:38:00,
2013-03-29 00:39:00,42.3,32.6,30.10,NW,308,0.0,222.7,68,0.00,,,0.00,VWS V14.01,2013-03-29 04:39:00,
2013-03-29 00:40:00,42.2,32.5,30.10,NW,308,0.0,222.7,68,0.00,,,0.00,VWS V14.01,2013-03-29 04:40:00,
2013-03-29 00:41:00,43.0,33.0,30.09,NW,318,0.0,222.7,67,0.00,,,0.00,VWS V14.01,2013-03-29 04:41:00,
2013-03-29 00:42:00,42.2,32.5,30.10,NNW,333,0.0,222.7,68,0.00,,,0.00,VWS V14.01,2013-03-29 04:42:00,
2013-03-29 00:43:00,42.2,32.3,30.10,NW,318,0.0,222.7,68,0.00,,,0.00,VWS V14.01,2013-03-29 04:43:00,
2013-03-29 00:44:00,42.2,32.4,30.10,WNW,287,0.0,222.7,68,0.00,,,0.00,VWS V14.01,2013-03-29 04:44:00,
2013-03-29 00:45:00,42.2,32.5,30.10,NW,308,5.1,222.7,68,0.00,,,0.00,VWS V14.01,2013-03-29 04:45:00,
2013-03-29 00:46:00,42.1,32.3,30.10,NW,321,6.8,222.7,68,0.00,,,0.00,VWS V14.01,2013-03-29 04:46:00,
2013-03-29 00:47:00,43.0,33.1,30.09,NW,318,0.0,222.7,68,0.00,,,0.00,VWS V14.01,2013-03-29 04:47:00,
2013-03-29 00:48:00,42.1,32.3,30.10,NW,312,4.7,222.7,68,0.00,,,0.00,VWS V14.01,2013-03-29 04:48:00,
2013-03-29 00:49:00,42.1,32.3,30.10,WNW,297,0.0,222.7,68,0.00,,,0.00,VWS V14.01,2013-03-29 04:49:00,
2013-03-29 00:50:00,42.1,32.3,30.10,WNW,297,0.0,222.7,68,0.00,,,0.00,VWS V14.01,2013-03-29 04:50:00,
2013-03-29 00:51:00,42.1,32.3,30.10,NW,314,5.1,222.7,68,0.00,,,0.00,VWS V14.01,2013-03-29 04:51:00,
2013-03-29 00:52:00,43.0,33.1,30.09,NW,318,0.0,222.7,68,0.00,,,0.00,VWS V14.01,2013-03-29 04:52:00,
2013-03-29 00:53:00,42.0,32.2,30.10,NW,322,5.0,222.7,68,0.00,,,0.00,VWS V14.01,2013-03-29 04:53:00,
2013-03-29 00:54:00,42.0,32.2,30.10,NW,316,0.0,222.7,68,0.00,,,0.00,VWS V14.01,2013-03-29 04:54:00,
2013-03-29 00:55:00,42.0,32.2,30.10,NW,316,0.0,222.7,68,0.00,,,0.00,VWS V14.01,2013-03-29 04:55:00,
2013-03-29 00:56:00,42.0,32.3,30.10,NW,316,0.0,222.7,68,0.00,,,0.00,VWS V14.01,2013-03-29 04:56:00,
2013-03-29 00:57:00,43.0,33.0,30.09,NW,319,0.0,222.7,68,0.00,,,0.00,VWS V14.01,2013-03-29 04:57:00,
2013-03-29 00:58:00,42.0,32.2,30.10,NW,316,0.0,222.7,68,0.00,,,0.00,VWS V14.01,2013-03-29 04:58:00,
2013-03-29 00:59:00,42.0,32.2,30.10,NW,316,0.0,222.7,68,0.00,,,0.00,VWS V14.01,2013-03-29 04:59:00,
2013-03-29 01:00:00,42.0,32.2,30.10,NNW,329,0.0,222.7,68,0.00,,,0.00,VWS V14.01,2013-03-29 05:00:00,
2013-03-29 01:01:00,42.0,32.3,30.10,NNW,329,0.0,222.7,68,0.00,,,0.00,VWS V14.01,2013-03-29 05:01:00,
2013-03-29 01:02:00,42.0,32.2,30.10,NW,307,0.0,222.7,68,0.00,,,0.00,VWS V14.01,2013-03-29 05:02:00,
2013-03-29 01:03:00,41.9,32.0,30.10,NW,307,0.0,222.7,68,0.00,,,0.00,VWS V14.01,2013-03-29 05:03:00,
2013-03-29 01:04:00,41.9,32.0,30.10,NW,319,5.7,222.7,68,0.00,,,0.00,VWS V14.01,2013-03-29 05:04:00,
2013-03-29 01:05:00,41.9,32.0,30.10,NW,308,3.5,222.7,68,0.00,,,0.00,VWS V14.01,2013-03-29 05:05:00,
2013-03-29 01:07:00,41.9,32.0,30.10,West,264,5.1,222.7,68,0.00,,,0.00,VWS V14.01,2013-03-29 05:07:00,
2013-03-29 01:08:00,41.9,32.0,30.10,NW,304,2.4,222.7,68,0.00,,,0.00,VWS V14.01,2013-03-29 05:08:00,
2013-03-29 01:09:00,41.9,32.0,30.10,NNW,328,0.0,222.7,68,0.00,,,0.00,VWS V14.01,2013-03-29 05:09:00,
2013-03-29 01:10:00,41.8,31.8,30.10,NW,304,5.8,222.7,67,0.00,,,0.00,VWS V14.01,2013-03-29 05:10:00,
2013-03-29 01:11:00,41.8,31.9,30.10,NNW,342,0.0,222.7,68,0.00,,,0.00,VWS V14.01,2013-03-29 05:11:00,
2013-03-29 01:12:00,41.8,31.9,30.10,NNW,342,0.0,222.7,68,0.00,,,0.00,VWS V14.01,2013-03-29 05:12:00,
2013-03-29 01:13:00,41.8,31.9,30.10,NNW,342,0.0,222.7,68,0.00,,,0.00,VWS V14.01,2013-03-29 05:13:00,
2013-03-29 01:14:00,41.8,31.8,30.10,NNW,342,0.0,222.7,67,0.00,,,0.00,VWS V14.01,2013-03-29 05:14:00,
2013-03-29 01:15:00,41.8,31.9,30.10,NNW,342,0.0,222.7,68,0.00,,,0.00,VWS V14.01,2013-03-29 05:15:00,
2013-03-29 01:16:00,41.7,31.7,30.10,NNW,342,0.0,222.7,67,0.00,,,0.00,VWS V14.01,2013-03-29 05:16:00,
2013-03-29 01:19:00,41.7,31.8,30.10,NNW,342,0.0,222.7,68,0.00,,,0.00,VWS V14.01,2013-03-29 05:19:00,
2013-03-29 01:21:00,41.7,31.8,30.10,NNW,342,0.0,222.7,68,0.00,,,0.00,VWS V14.01,2013-03-29 05:21:00,
2013-03-29 01:25:00,41.6,31.8,30.10,NNW,342,0.0,222.7,68,0.00,,,0.00,VWS V14.01,2013-03-29 05:25:00,
2013-03-29 01:26:00,41.5,31.7,30.10,NNW,342,0.0,222.7,68,0.00,,,0.00,VWS V14.01,2013-03-29 05:26:00,
2013-03-29 01:30:00,41.4,31.6,30.10,NNW,342,0.0,222.7,68,0.00,,,0.00,VWS V14.01,2013-03-29 05:30:00,
2013-03-29 01:43:00,41.1,31.4,30.10,NNW,342,0.0,222.7,68,0.00,,,0.00,VWS V14.01,2013-03-29 05:43:00,
2013-03-29 01:47:00,41.0,31.3,30.10,NNW,342,0.0,222.7,68,0.00,,,0.00,VWS V14.01,2013-03-29 05:47:00,
2013-03-29 02:15:00,41.8,31.9,30.10,NNW,342,0.0,222.7,68,0.00,,,0.00,VWS V14.01,2013-03-29 06:15:00,
2013-03-29 02:21:00,41.7,31.9,30.10,NNW,342,0.0,222.7,68,0.00,,,0.00,VWS V14.01,2013-03-29 06:21:00,
2013-03-29 02:26:00,41.4,31.6,30.10,NNW,342,0.0,222.7,68,0.00,,,0.00,VWS V14.01,2013-03-29 06:26:00,
2013-03-29 02:31:00,41.3,31.6,30.10,NNW,342,0.0,222.7,68,0.00,,,0.00,VWS V14.01,2013-03-29 06:31:00,
2013-03-29 02:37:00,41.2,31.5,30.10,NNW,342,0.0,222.7,68,0.00,,,0.00,VWS V14.01,2013-03-29 06:37:00,
2013-03-29 02:42:00,41.1,31.4,30.10,NNW,342,0.0,222.7,68,0.00,,,0.00,VWS V14.01,2013-03-29 06:42:00,
2013-03-29 02:47:00,41.0,31.3,30.10,NNW,342,0.0,222.7,68,0.00,,,0.00,VWS V14.01,2013-03-29 06:47:00,
2013-03-29 02:52:00,40.9,31.3,30.10,NNW,342,0.0,222.7,68,0.00,,,0.00,VWS V14.01,2013-03-29 06:52:00,
2013-03-29 02:58:00,40.7,31.1,30.10,NNW,342,0.0,222.7,68,0.00,,,0.00,VWS V14.01,2013-03-29 06:58:00,
2013-03-29 03:03:00,40.6,31.0,30.10,NNW,342,0.0,222.7,68,0.00,,,0.00,VWS V14.01,2013-03-29 07:03:00,
2013-03-29 03:08:00,40.5,31.0,30.10,NNW,342,0.0,222.7,68,0.00,,,0.00,VWS V14.01,2013-03-29 07:08:00,
2013-03-29 03:14:00,40.4,30.9,30.10,NW,318,0.0,222.7,69,0.00,,,0.00,VWS V14.01,2013-03-29 07:14:00,
2013-03-29 03:19:00,40.5,30.9,30.10,NNW,346,0.0,222.7,68,0.00,,,0.00,VWS V14.01,2013-03-29 07:19:00,
2013-03-29 03:24:00,40.4,30.8,30.10,North,1,0.0,222.7,68,0.00,,,0.00,VWS V14.01,2013-03-29 07:24:00,
2013-03-29 03:29:00,40.4,30.9,30.10,WNW,300,5.0,222.7,68,0.00,,,0.00,VWS V14.01,2013-03-29 07:29:00,
2013-03-29 03:35:00,40.4,30.9,30.10,WSW,256,0.0,222.7,69,0.00,,,0.00,VWS V14.01,2013-03-29 07:35:00,
2013-03-29 03:40:00,40.3,31.0,30.10,WSW,256,0.0,222.7,69,0.00,,,0.00,VWS V14.01,2013-03-29 07:40:00,
2013-03-29 03:45:00,40.2,30.8,30.10,WSW,256,0.0,222.7,69,0.00,,,0.00,VWS V14.01,2013-03-29 07:45:00,
2013-03-29 03:50:00,40.1,30.9,30.10,North,352,0.0,222.7,69,0.00,,,0.00,VWS V14.01,2013-03-29 07:50:00,
2013-03-29 03:56:00,40.0,30.8,30.10,North,352,0.0,222.7,70,0.00,,,0.00,VWS V14.01,2013-03-29 07:56:00,
2013-03-29 04:01:00,39.9,30.9,30.10,North,352,0.0,222.7,70,0.00,,,0.00,VWS V14.01,2013-03-29 08:01:00,
2013-03-29 04:06:00,39.8,30.9,30.10,North,352,0.0,222.7,70,0.00,,,0.00,VWS V14.01,2013-03-29 08:06:00,
2013-03-29 04:11:00,39.7,31.0,30.10,NW,323,6.0,222.7,71,0.00,,,0.00,VWS V14.01,2013-03-29 08:11:00,
2013-03-29 04:16:00,39.7,31.0,30.09,West,263,0.0,222.7,71,0.00,,,0.00,VWS V14.01,2013-03-29 08:16:00,
2013-03-29 04:22:00,39.7,31.0,30.09,West,263,0.0,222.7,71,0.00,,,0.00,VWS V14.01,2013-03-29 08:22:00,
2013-03-29 04:27:00,39.7,31.0,30.10,North,359,0.0,222.7,71,0.00,,,0.00,VWS V14.01,2013-03-29 08:27:00,
2013-03-29 04:32:00,39.7,31.0,30.09,WNW,288,3.4,222.7,71,0.00,,,0.00,VWS V14.01,2013-03-29 08:32:00,
2013-03-29 04:37:00,39.7,31.1,30.09,WNW,302,0.0,222.7,71,0.00,,,0.00,VWS V14.01,2013-03-29 08:37:00,
2013-03-29 04:43:00,39.7,31.0,30.10,WNW,302,0.0,222.7,71,0.00,,,0.00,VWS V14.01,2013-03-29 08:43:00,
2013-03-29 04:48:00,39.7,31.0,30.10,WNW,300,0.0,222.7,71,0.00,,,0.00,VWS V14.01,2013-03-29 08:48:00,
2013-03-29 04:53:00,39.7,31.0,30.10,West,273,0.0,222.7,71,0.00,,,0.00,VWS V14.01,2013-03-29 08:53:00,
2013-03-29 04:58:00,39.7,31.0,30.10,West,273,0.0,222.7,71,0.00,,,0.00,VWS V14.01,2013-03-29 08:58:00,
2013-03-29 05:04:00,39.5,30.9,30.10,NW,318,0.0,222.7,71,0.00,,,0.00,VWS V14.01,2013-03-29 09:04:00,
2013-03-29 05:09:00,39.4,31.1,30.10,NW,318,0.0,222.7,72,0.00,,,0.00,VWS V14.01,2013-03-29 09:09:00,
2013-03-29 05:14:00,39.2,31.2,30.10,NW,318,0.0,222.7,73,0.00,,,0.00,VWS V14.01,2013-03-29 09:14:00,
2013-03-29 05:19:00,38.8,31.1,30.10,NW,318,0.0,222.7,74,0.00,,,0.00,VWS V14.01,2013-03-29 09:19:00,
2013-03-29 05:25:00,38.5,31.0,30.10,NW,318,0.0,222.7,74,0.00,,,0.00,VWS V14.01,2013-03-29 09:25:00,
2013-03-29 05:30:00,38.2,30.9,30.10,NW,318,0.0,222.7,75,0.00,,,0.00,VWS V14.01,2013-03-29 09:30:00,
2013-03-29 05:35:00,37.9,30.9,30.10,NW,318,0.0,222.7,76,0.00,,,0.00,VWS V14.01,2013-03-29 09:35:00,
2013-03-29 05:41:00,37.6,31.0,30.10,NW,318,0.0,222.7,77,0.00,,,0.00,VWS V14.01,2013-03-29 09:41:00,
2013-03-29 05:46:00,37.3,30.9,30.10,NW,318,0.0,222.7,77,0.00,,,0.00,VWS V14.01,2013-03-29 09:46:00,
2013-03-29 05:52:00,37.2,30.9,30.10,NW,318,0.0,222.7,78,0.00,,,0.00,VWS V14.01,2013-03-29 09:52:00,
2013-03-29 05:57:00,37.2,30.9,30.10,NW,315,0.0,222.7,78,0.00,,,0.00,VWS V14.01,2013-03-29 09:57:00,
2013-03-29 06:03:00,37.1,30.9,30.10,NW,315,0.0,222.7,78,0.00,,,0.00,VWS V14.01,2013-03-29 10:03:00,
2013-03-29 06:08:00,37.2,30.9,30.10,NW,322,0.0,222.7,78,0.00,,,0.00,VWS V14.01,2013-03-29 10:08:00,
2013-03-29 06:14:00,37.3,31.0,30.10,NW,322,0.0,222.7,78,0.00,,,0.00,VWS V14.01,2013-03-29 10:14:00,
2013-03-29 06:19:00,37.5,31.1,30.10,NW,322,0.0,222.7,78,0.00,,,0.00,VWS V14.01,2013-03-29 10:19:00,
2013-03-29 06:25:00,37.6,31.2,30.10,NW,322,0.0,222.7,77,0.00,,,0.00,VWS V14.01,2013-03-29 10:25:00,
2013-03-29 06:30:00,37.6,31.2,30.10,NW,314,0.0,222.7,77,0.00,,,0.00,VWS V14.01,2013-03-29 10:30:00,
2013-03-29 06:36:00,37.7,31.1,30.10,NW,305,0.0,222.7,77,0.00,,,0.00,VWS V14.01,2013-03-29 10:36:00,
2013-03-29 06:42:00,37.7,31.3,30.10,NW,305,0.0,222.7,78,0.00,,,0.00,VWS V14.01,2013-03-29 10:42:00,
2013-03-29 06:47:00,37.6,31.3,30.10,NW,305,0.0,222.7,78,0.00,,,0.00,VWS V14.01,2013-03-29 10:47:00,
2013-03-29 06:52:00,37.6,31.3,30.10,NW,305,0.0,222.7,78,0.00,,,0.00,VWS V14.01,2013-03-29 10:52:00,
2013-03-29 06:58:00,37.6,31.3,30.10,NW,305,0.0,222.7,78,0.00,,,0.00,VWS V14.01,2013-03-29 10:58:00,
2013-03-29 07:03:00,37.6,31.3,30.10,NW,305,0.0,222.7,78,0.00,,,0.00,VWS V14.01,2013-03-29 11:03:00,
2013-03-29 07:08:00,37.6,31.3,30.10,NW,305,0.0,222.7,78,0.00,,,0.00,VWS V14.01,2013-03-29 11:08:00,
2013-03-29 07:13:00,37.7,31.3,30.11,NW,305,0.0,222.7,78,0.00,,,0.00,VWS V14.01,2013-03-29 11:13:00,
2013-03-29 07:19:00,37.7,31.3,30.11,NW,305,0.0,222.7,77,0.00,,,0.00,VWS V14.01,2013-03-29 11:19:00,
2013-03-29 07:24:00,37.9,31.3,30.11,NW,308,3.2,222.7,77,0.00,,,0.00,VWS V14.01,2013-03-29 11:24:00,
2013-03-29 07:29:00,38.1,31.4,30.11,North,359,0.0,222.7,76,0.00,,,0.00,VWS V14.01,2013-03-29 11:29:00,
2013-03-29 07:35:00,38.3,31.4,30.11,North,359,0.0,222.7,76,0.00,,,0.00,VWS V14.01,2013-03-29 11:35:00,
2013-03-29 07:40:00,38.5,31.5,30.11,North,359,0.0,222.7,76,0.00,,,0.00,VWS V14.01,2013-03-29 11:40:00,
2013-03-29 07:45:00,38.7,31.4,30.11,North,359,0.0,222.7,75,0.00,,,0.00,VWS V14.01,2013-03-29 11:45:00,
2013-03-29 07:50:00,39.0,31.3,30.11,NW,312,0.0,222.7,74,0.00,,,0.00,VWS V14.01,2013-03-29 11:50:00,
2013-03-29 07:56:00,39.3,31.3,30.12,North,1,0.0,222.7,73,0.00,,,0.00,VWS V14.01,2013-03-29 11:56:00,
2013-03-29 08:01:00,39.5,31.4,30.12,West,264,0.0,222.7,72,0.00,,,0.00,VWS V14.01,2013-03-29 12:01:00,
2013-03-29 08:07:00,39.9,31.6,30.12,WNW,298,0.0,222.7,72,0.00,,,0.00,VWS V14.01,2013-03-29 12:07:00,
2013-03-29 08:13:00,40.1,31.6,30.12,WNW,298,0.0,222.7,71,0.00,,,0.00,VWS V14.01,2013-03-29 12:13:00,
2013-03-29 08:18:00,40.3,31.8,30.12,NNW,328,0.0,222.7,71,0.00,,,0.00,VWS V14.01,2013-03-29 12:18:00,
2013-03-29 08:23:00,40.6,31.7,30.12,NNE,13,3.4,222.7,70,0.00,,,0.00,VWS V14.01,2013-03-29 12:23:00,
2013-03-29 08:28:00,40.7,31.4,30.12,North,357,8.1,222.7,69,0.00,,,0.00,VWS V14.01,2013-03-29 12:28:00,
2013-03-29 08:34:00,41.0,31.5,30.12,WNW,298,0.0,222.7,69,0.00,,,0.00,VWS V14.01,2013-03-29 12:34:00,
2013-03-29 08:39:00,41.3,31.6,30.12,WNW,285,2.2,222.7,68,0.00,,,0.00,VWS V14.01,2013-03-29 12:39:00,
2013-03-29 08:44:00,41.4,31.4,30.12,North,357,0.0,222.7,67,0.00,,,0.00,VWS V14.01,2013-03-29 12:44:00,
2013-03-29 08:50:00,41.7,31.6,30.12,NW,309,0.0,222.7,67,0.00,,,0.00,VWS V14.01,2013-03-29 12:50:00,
2013-03-29 08:55:00,42.1,31.8,30.12,NNE,30,0.0,222.7,67,0.00,,,0.00,VWS V14.01,2013-03-29 12:55:00,
2013-03-29 09:00:00,42.4,31.6,30.12,NNE,24,0.0,222.7,65,0.00,,,0.00,VWS V14.01,2013-03-29 13:00:00,
2013-03-29 09:05:00,42.5,31.4,30.12,NW,307,7.0,222.7,64,0.00,,,0.00,VWS V14.01,2013-03-29 13:05:00,
2013-03-29 09:11:00,42.5,31.4,30.12,North,353,0.0,222.7,65,0.00,,,0.00,VWS V14.01,2013-03-29 13:11:00,
2013-03-29 09:16:00,42.6,31.1,30.12,NW,326,0.0,222.7,64,0.00,,,0.00,VWS V14.01,2013-03-29 13:16:00,
2013-03-29 09:21:00,42.6,30.9,30.12,WNW,294,3.0,222.7,63,0.00,,,0.00,VWS V14.01,2013-03-29 13:21:00,
2013-03-29 09:27:00,42.9,31.5,30.12,NW,321,6.8,222.7,64,0.00,,,0.00,VWS V14.01,2013-03-29 13:27:00,
2013-03-29 09:32:00,42.9,30.5,30.12,NNW,340,8.2,222.7,61,0.00,,,0.00,VWS V14.01,2013-03-29 13:32:00,
2013-03-29 09:37:00,43.5,31.5,30.12,WNW,300,5.0,222.7,62,0.00,,,0.00,VWS V14.01,2013-03-29 13:37:00,
2013-03-29 09:42:00,43.9,30.9,30.12,NW,305,0.0,222.7,60,0.00,,,0.00,VWS V14.01,2013-03-29 13:42:00,
2013-03-29 09:48:00,44.2,30.4,30.12,NNW,339,6.3,222.7,58,0.00,,,0.00,VWS V14.01,2013-03-29 13:48:00,
2013-03-29 09:53:00,44.4,30.7,30.12,NNW,345,8.9,222.7,58,0.00,,,0.00,VWS V14.01,2013-03-29 13:53:00,
2013-03-29 09:58:00,44.9,31.1,30.12,North,359,4.3,222.7,58,0.00,,,0.00,VWS V14.01,2013-03-29 13:58:00,
2013-03-29 10:03:00,45.0,31.0,30.12,North,6,0.0,222.7,58,0.00,,,0.00,VWS V14.01,2013-03-29 14:03:00,
2013-03-29 10:09:00,45.5,31.0,30.12,NW,312,0.0,222.7,57,0.00,,,0.00,VWS V14.01,2013-03-29 14:09:00,
2013-03-29 10:14:00,46.0,31.6,30.12,NW,312,0.0,222.7,57,0.00,,,0.00,VWS V14.01,2013-03-29 14:14:00,
2013-03-29 10:19:00,46.3,31.1,30.12,WNW,285,0.0,222.7,55,0.00,,,0.00,VWS V14.01,2013-03-29 14:19:00,
2013-03-29 10:24:00,46.1,30.8,30.12,NW,305,0.0,222.7,55,0.00,,,0.00,VWS V14.01,2013-03-29 14:24:00,
2013-03-29 10:30:00,46.4,31.4,30.12,NW,311,0.0,222.7,56,0.00,,,0.00,VWS V14.01,2013-03-29 14:30:00,
2013-03-29 10:35:00,46.8,31.1,30.12,North,7,4.2,222.7,54,0.00,,,0.00,VWS V14.01,2013-03-29 14:35:00,
2013-03-29 10:40:00,46.7,31.8,30.12,North,8,0.0,222.7,56,0.00,,,0.00,VWS V14.01,2013-03-29 14:40:00,
2013-03-29 10:46:00,47.2,30.4,30.12,West,274,0.0,222.7,52,0.00,,,0.00,VWS V14.01,2013-03-29 14:46:00,
2013-03-29 10:51:00,47.4,30.7,30.12,North,6,0.0,222.7,52,0.00,,,0.00,VWS V14.01,2013-03-29 14:51:00,
2013-03-29 10:57:00,47.7,31.0,30.12,North,6,0.0,222.7,52,0.00,,,0.00,VWS V14.01,2013-03-29 14:57:00,
2013-03-29 11:02:00,48.1,30.8,30.12,WNW,295,0.0,222.7,51,0.00,,,0.00,VWS V14.01,2013-03-29 15:02:00,
2013-03-29 11:08:00,47.9,29.7,30.11,ENE,58,0.0,222.7,49,0.00,,,0.00,VWS V14.01,2013-03-29 15:08:00,
2013-03-29 11:13:00,48.0,30.3,30.12,North,1,6.5,222.7,50,0.00,,,0.00,VWS V14.01,2013-03-29 15:13:00,
2013-03-29 11:18:00,48.5,29.9,30.11,NW,319,0.0,222.7,48,0.00,,,0.00,VWS V14.01,2013-03-29 15:18:00,
2013-03-29 11:23:00,49.2,30.6,30.11,WSW,257,0.0,222.7,48,0.00,,,0.00,VWS V14.01,2013-03-29 15:23:00,
2013-03-29 11:29:00,49.6,30.6,30.11,NW,326,9.4,222.7,48,0.00,,,0.00,VWS V14.01,2013-03-29 15:29:00,
2013-03-29 11:34:00,49.6,30.1,30.11,WNW,301,0.0,222.7,47,0.00,,,0.00,VWS V14.01,2013-03-29 15:34:00,
2013-03-29 11:39:00,49.9,30.2,30.10,SW,235,0.0,222.7,46,0.00,,,0.00,VWS V14.01,2013-03-29 15:39:00,
2013-03-29 11:45:00,49.5,30.0,30.11,North,8,5.3,222.7,47,0.00,,,0.00,VWS V14.01,2013-03-29 15:45:00,
2013-03-29 11:50:00,49.7,29.9,30.10,NE,38,0.0,222.7,46,0.00,,,0.00,VWS V14.01,2013-03-29 15:50:00,
2013-03-29 11:55:00,50.1,29.5,30.10,North,350,4.7,222.7,45,0.00,,,0.00,VWS V14.01,2013-03-29 15:55:00,
2013-03-29 12:00:00,49.6,30.0,30.10,North,353,0.0,222.7,46,0.00,,,0.00,VWS V14.01,2013-03-29 16:00:00,
2013-03-29 12:06:00,50.3,30.4,30.10,North,353,0.0,222.7,46,0.00,,,0.00,VWS V14.01,2013-03-29 16:06:00,
2013-03-29 12:11:00,51.6,30.8,30.10,North,353,0.0,222.7,45,0.00,,,0.00,VWS V14.01,2013-03-29 16:11:00,
2013-03-29 12:17:00,51.9,29.8,30.10,NW,304,0.0,222.7,42,0.00,,,0.00,VWS V14.01,2013-03-29 16:17:00,
2013-03-29 12:22:00,51.4,30.3,30.10,West,280,5.2,222.7,44,0.00,,,0.00,VWS V14.01,2013-03-29 16:22:00,
2013-03-29 12:27:00,51.7,29.4,30.09,WSW,255,0.0,222.7,42,0.00,,,0.00,VWS V14.01,2013-03-29 16:27:00,
2013-03-29 12:32:00,51.0,28.6,30.09,NNW,330,0.0,222.7,42,0.00,,,0.00,VWS V14.01,2013-03-29 16:32:00,
2013-03-29 12:38:00,51.0,29.0,30.09,NW,305,0.0,222.7,42,0.00,,,0.00,VWS V14.01,2013-03-29 16:38:00,
2013-03-29 12:43:00,51.2,28.9,30.09,NW,315,0.0,222.7,42,0.00,,,0.00,VWS V14.01,2013-03-29 16:43:00,
2013-03-29 12:48:00,51.1,28.6,30.09,WNW,288,3.5,222.7,42,0.00,,,0.00,VWS V14.01,2013-03-29 16:48:00,
2013-03-29 12:54:00,52.0,29.7,30.08,SW,215,0.0,222.7,42,0.00,,,0.00,VWS V14.01,2013-03-29 16:54:00,
2013-03-29 12:59:00,52.6,29.5,30.08,NW,304,0.0,222.7,41,0.00,,,0.00,VWS V14.01,2013-03-29 16:59:00,
2013-03-29 13:04:00,53.3,29.5,30.08,SW,233,0.0,222.7,40,0.00,,,0.00,VWS V14.01,2013-03-29 17:04:00,
2013-03-29 13:09:00,53.2,29.5,30.08,West,276,0.0,222.7,40,0.00,,,0.00,VWS V14.01,2013-03-29 17:09:00,
2013-03-29 13:14:00,53.0,29.4,30.08,WNW,295,0.0,222.7,40,0.00,,,0.00,VWS V14.01,2013-03-29 17:14:00,
2013-03-29 13:20:00,53.1,30.2,30.08,WSW,249,0.0,222.7,41,0.00,,,0.00,VWS V14.01,2013-03-29 17:20:00,
2013-03-29 13:25:00,52.5,29.3,30.08,NW,314,0.0,222.7,41,0.00,,,0.00,VWS V14.01,2013-03-29 17:25:00,
2013-03-29 13:30:00,52.0,29.2,30.08,West,273,0.0,222.7,41,0.00,,,0.00,VWS V14.01,2013-03-29 17:30:00,
2013-03-29 13:35:00,51.9,29.2,30.08,West,273,0.0,222.7,42,0.00,,,0.00,VWS V14.01,2013-03-29 17:35:00,
2013-03-29 13:40:00,52.3,28.5,30.07,WNW,297,0.0,222.7,40,0.00,,,0.00,VWS V14.01,2013-03-29 17:40:00,
2013-03-29 13:46:00,52.3,28.5,30.07,NW,326,7.0,222.7,40,0.00,,,0.00,VWS V14.01,2013-03-29 17:46:00,
2013-03-29 13:51:00,52.0,28.7,30.07,NW,315,0.0,222.7,40,0.00,,,0.00,VWS V14.01,2013-03-29 17:51:00,
2013-03-29 13:57:00,52.4,28.9,30.06,West,263,0.0,222.7,40,0.00,,,0.00,VWS V14.01,2013-03-29 17:57:00,
2013-03-29 14:02:00,51.9,28.5,30.06,NW,318,5.2,222.7,40,0.00,,,0.00,VWS V14.01,2013-03-29 18:02:00,
2013-03-29 14:07:00,52.3,28.1,30.06,NW,326,0.0,222.7,39,0.00,,,0.00,VWS V14.01,2013-03-29 18:07:00,
2013-03-29 14:13:00,52.1,28.2,30.06,NW,319,0.0,222.7,39,0.00,,,0.00,VWS V14.01,2013-03-29 18:13:00,
2013-03-29 14:18:00,52.7,29.0,30.05,West,274,0.0,222.7,40,0.00,,,0.00,VWS V14.01,2013-03-29 18:18:00,
2013-03-29 14:24:00,52.7,28.6,30.05,WNW,292,9.8,222.7,39,0.00,,,0.00,VWS V14.01,2013-03-29 18:24:00,
2013-03-29 14:29:00,52.8,29.1,30.05,NW,305,0.0,222.7,40,0.00,,,0.00,VWS V14.01,2013-03-29 18:29:00,
2013-03-29 14:34:00,53.0,29.0,30.05,NW,326,0.0,222.7,39,0.00,,,0.00,VWS V14.01,2013-03-29 18:34:00,
2013-03-29 14:39:00,53.5,28.1,30.05,NW,326,0.0,222.7,37,0.00,,,0.00,VWS V14.01,2013-03-29 18:39:00,
2013-03-29 14:45:00,53.7,28.1,30.05,WSW,249,0.0,222.7,37,0.00,,,0.00,VWS V14.01,2013-03-29 18:45:00,
2013-03-29 14:50:00,54.4,28.2,30.04,West,278,0.0,222.7,36,0.00,,,0.00,VWS V14.01,2013-03-29 18:50:00,
2013-03-29 14:55:00,54.8,28.3,30.05,West,266,0.0,222.7,36,0.00,,,0.00,VWS V14.01,2013-03-29 18:55:00,
2013-03-29 15:00:00,54.4,27.9,30.04,WSW,256,0.0,222.7,36,0.00,,,0.00,VWS V14.01,2013-03-29 19:00:00,
2013-03-29 15:06:00,53.7,28.2,30.05,West,273,0.0,222.7,37,0.00,,,0.00,VWS V14.01,2013-03-29 19:06:00,
2013-03-29 15:11:00,53.0,27.4,30.04,North,3,4.5,222.7,37,0.00,,,0.00,VWS V14.01,2013-03-29 19:11:00,
2013-03-29 15:16:00,52.4,27.6,30.04,West,270,0.0,222.7,38,0.00,,,0.00,VWS V14.01,2013-03-29 19:16:00,
2013-03-29 15:21:00,52.8,27.4,30.04,WSW,249,0.0,222.7,37,0.00,,,0.00,VWS V14.01,2013-03-29 19:21:00,
2013-03-29 15:27:00,53.4,28.1,30.04,WNW,285,0.0,222.7,37,0.00,,,0.00,VWS V14.01,2013-03-29 19:27:00,
2013-03-29 15:32:00,53.3,27.1,30.04,NNW,336,0.0,222.7,36,0.00,,,0.00,VWS V14.01,2013-03-29 19:32:00,
2013-03-29 15:37:00,54.4,28.8,30.04,West,280,0.0,222.7,37,0.00,,,0.00,VWS V14.01,2013-03-29 19:37:00,
2013-03-29 15:43:00,55.3,28.2,30.04,West,269,0.0,222.7,35,0.00,,,0.00,VWS V14.01,2013-03-29 19:43:00,
2013-03-29 15:48:00,54.7,28.1,30.04,WNW,291,4.2,222.7,36,0.00,,,0.00,VWS V14.01,2013-03-29 19:48:00,
2013-03-29 15:53:00,55.2,28.6,30.04,West,267,0.0,222.7,36,0.00,,,0.00,VWS V14.01,2013-03-29 19:53:00,
2013-03-29 15:58:00,54.8,27.7,30.04,West,264,0.0,222.7,35,0.00,,,0.00,VWS V14.01,2013-03-29 19:58:00,
2013-03-29 16:04:00,53.5,27.3,30.04,North,359,0.0,222.7,36,0.00,,,0.00,VWS V14.01,2013-03-29 20:04:00,
2013-03-29 16:09:00,52.9,27.6,30.04,West,263,3.5,222.7,37,0.00,,,0.00,VWS V14.01,2013-03-29 20:09:00,
2013-03-29 16:15:00,52.2,27.6,30.04,NW,315,0.0,222.7,38,0.00,,,0.00,VWS V14.01,2013-03-29 20:15:00,
2013-03-29 16:20:00,51.6,27.8,30.04,NW,326,0.0,222.7,40,0.00,,,0.00,VWS V14.01,2013-03-29 20:20:00,
2013-03-29 16:26:00,51.5,28.2,30.04,West,274,6.2,222.7,40,0.00,,,0.00,VWS V14.01,2013-03-29 20:26:00,
2013-03-29 16:32:00,51.1,28.1,30.04,WNW,294,0.0,222.7,41,0.00,,,0.00,VWS V14.01,2013-03-29 20:32:00,
2013-03-29 16:37:00,50.8,28.4,30.04,NW,319,0.0,222.7,42,0.00,,,0.00,VWS V14.01,2013-03-29 20:37:00,
2013-03-29 16:43:00,50.6,28.2,30.05,NNW,338,0.0,222.7,42,0.00,,,0.00,VWS V14.01,2013-03-29 20:43:00,
2013-03-29 16:48:00,49.8,28.6,30.05,NNW,330,8.2,222.7,44,0.00,,,0.00,VWS V14.01,2013-03-29 20:48:00,
2013-03-29 16:54:00,49.7,29.2,30.05,WNW,291,0.0,222.7,45,0.00,,,0.00,VWS V14.01,2013-03-29 20:54:00,
2013-03-29 16:59:00,49.5,29.3,30.05,WNW,290,0.0,222.7,46,0.00,,,0.00,VWS V14.01,2013-03-29 20:59:00,
2013-03-29 17:04:00,49.3,29.2,30.05,WNW,301,5.7,222.7,46,0.00,,,0.00,VWS V14.01,2013-03-29 21:04:00,
2013-03-29 17:10:00,49.2,29.2,30.05,WNW,298,0.0,222.7,46,0.00,,,0.00,VWS V14.01,2013-03-29 21:10:00,
2013-03-29 17:16:00,49.0,29.3,30.05,NW,311,0.0,222.7,46,0.00,,,0.00,VWS V14.01,2013-03-29 21:16:00,
2013-03-29 17:21:00,48.9,28.9,30.05,West,271,0.0,222.7,46,0.00,,,0.00,VWS V14.01,2013-03-29 21:21:00,
2013-03-29 17:27:00,48.6,28.9,30.06,West,263,7.8,222.7,46,0.00,,,0.00,VWS V14.01,2013-03-29 21:27:00,
2013-03-29 17:33:00,48.3,28.9,30.06,West,266,0.0,222.7,47,0.00,,,0.00,VWS V14.01,2013-03-29 21:33:00,
2013-03-29 17:38:00,48.3,28.7,30.06,NW,319,5.1,222.7,46,0.00,,,0.00,VWS V14.01,2013-03-29 21:38:00,
2013-03-29 17:44:00,48.2,29.0,30.06,North,349,0.0,222.7,47,0.00,,,0.00,VWS V14.01,2013-03-29 21:44:00,
2013-03-29 17:49:00,48.2,29.1,30.06,WNW,297,0.0,222.7,47,0.00,,,0.00,VWS V14.01,2013-03-29 21:49:00,
2013-03-29 17:55:00,48.1,29.1,30.06,NW,319,0.0,222.7,48,0.00,,,0.00,VWS V14.01,2013-03-29 21:55:00,
2013-03-29 18:00:00,47.9,29.1,30.07,NW,319,0.0,222.7,48,0.00,,,0.00,VWS V14.01,2013-03-29 22:00:00,
2013-03-29 18:06:00,47.8,29.1,30.07,NW,321,0.0,222.7,48,0.00,,,0.00,VWS V14.01,2013-03-29 22:06:00,
2013-03-29 18:11:00,47.6,29.4,30.07,NW,325,6.1,222.7,49,0.00,,,0.00,VWS V14.01,2013-03-29 22:11:00,
2013-03-29 18:16:00,47.3,29.5,30.07,NW,316,0.0,222.7,50,0.00,,,0.00,VWS V14.01,2013-03-29 22:16:00,
2013-03-29 18:21:00,47.2,29.5,30.07,NW,304,8.6,222.7,50,0.00,,,0.00,VWS V14.01,2013-03-29 22:21:00,
2013-03-29 18:27:00,46.8,29.5,30.07,WNW,297,7.9,222.7,51,0.00,,,0.00,VWS V14.01,2013-03-29 22:27:00,
2013-03-29 18:32:00,46.6,29.8,30.07,NNW,338,0.0,222.7,52,0.00,,,0.00,VWS V14.01,2013-03-29 22:32:00,
2013-03-29 18:37:00,46.6,30.4,30.07,NW,312,0.0,222.7,53,0.00,,,0.00,VWS V14.01,2013-03-29 22:37:00,
2013-03-29 18:43:00,46.4,30.2,30.07,NNE,15,0.0,222.7,53,0.00,,,0.00,VWS V14.01,2013-03-29 22:43:00,
2013-03-29 18:48:00,46.4,30.3,30.08,NNE,15,0.0,222.7,53,0.00,,,0.00,VWS V14.01,2013-03-29 22:48:00,
2013-03-29 18:54:00,46.2,30.4,30.08,WNW,285,0.0,222.7,54,0.00,,,0.00,VWS V14.01,2013-03-29 22:54:00,
2013-03-29 19:00:00,46.1,30.3,30.08,NW,304,0.0,222.7,54,0.00,,,0.00,VWS V14.01,2013-03-29 23:00:00,
2013-03-29 19:05:00,45.9,30.2,30.08,WNW,284,0.0,222.7,54,0.00,,,0.00,VWS V14.01,2013-03-29 23:05:00,
2013-03-29 19:10:00,45.9,30.4,30.08,NW,315,0.0,222.7,54,0.00,,,0.00,VWS V14.01,2013-03-29 23:10:00,
2013-03-29 19:16:00,45.9,30.6,30.08,NW,315,0.0,222.7,55,0.00,,,0.00,VWS V14.01,2013-03-29 23:16:00,
2013-03-29 19:21:00,45.7,30.3,30.08,WNW,301,0.0,222.7,55,0.00,,,0.00,VWS V14.01,2013-03-29 23:21:00,
2013-03-29 19:27:00,45.6,30.4,30.08,NW,323,0.0,222.7,55,0.00,,,0.00,VWS V14.01,2013-03-29 23:27:00,
2013-03-29 19:32:00,45.6,30.7,30.08,NW,323,0.0,222.7,56,0.00,,,0.00,VWS V14.01,2013-03-29 23:32:00,
2013-03-29 19:37:00,45.5,30.5,30.08,North,349,0.0,222.7,56,0.00,,,0.00,VWS V14.01,2013-03-29 23:37:00,
2013-03-29 19:43:00,45.5,30.5,30.08,North,349,0.0,222.7,56,0.00,,,0.00,VWS V14.01,2013-03-29 23:43:00,
2013-03-29 19:48:00,45.4,30.5,30.08,North,349,0.0,222.7,56,0.00,,,0.00,VWS V14.01,2013-03-29 23:48:00,
2013-03-29 19:53:00,45.3,30.4,30.08,West,281,0.0,222.7,56,0.00,,,0.00,VWS V14.01,2013-03-29 23:53:00,
2013-03-29 19:59:00,45.3,30.3,30.08,West,281,0.0,222.7,56,0.00,,,0.00,VWS V14.01,2013-03-29 23:59:00,
2013-03-29 20:04:00,45.3,30.7,30.08,West,281,0.0,222.7,56,0.00,,,0.00,VWS V14.01,2013-03-30 00:04:00,
2013-03-29 20:09:00,45.2,30.4,30.08,West,281,0.0,222.7,56,0.00,,,0.00,VWS V14.01,2013-03-30 00:09:00,
2013-03-29 20:14:00,45.2,30.4,30.08,West,281,0.0,222.7,56,0.00,,,0.00,VWS V14.01,2013-03-30 00:14:00,
2013-03-29 20:20:00,45.2,30.3,30.09,West,281,0.0,222.7,56,0.00,,,0.00,VWS V14.01,2013-03-30 00:20:00,
2013-03-29 20:25:00,45.1,30.3,30.09,NW,312,0.0,222.7,56,0.00,,,0.00,VWS V14.01,2013-03-30 00:25:00,
2013-03-29 20:30:00,45.1,30.5,30.09,NW,312,0.0,222.7,56,0.00,,,0.00,VWS V14.01,2013-03-30 00:30:00,
2013-03-29 20:36:00,45.1,30.6,30.09,NW,312,0.0,222.7,56,0.00,,,0.00,VWS V14.01,2013-03-30 00:36:00,
2013-03-29 20:41:00,45.1,30.6,30.09,WNW,302,0.0,222.7,56,0.00,,,0.00,VWS V14.01,2013-03-30 00:41:00,
2013-03-29 20:46:00,44.9,30.4,30.09,NNW,343,6.3,222.7,57,0.00,,,0.00,VWS V14.01,2013-03-30 00:46:00,
2013-03-29 20:51:00,44.9,30.5,30.09,NW,309,0.0,222.7,57,0.00,,,0.00,VWS V14.01,2013-03-30 00:51:00,
2013-03-29 20:57:00,44.8,30.6,30.09,NW,309,3.4,222.7,57,0.00,,,0.00,VWS V14.01,2013-03-30 00:57:00,
2013-03-29 21:02:00,44.7,30.7,30.10,WNW,291,5.1,222.7,58,0.00,,,0.00,VWS V14.01,2013-03-30 01:02:00,
2013-03-29 21:07:00,44.6,30.8,30.10,WNW,301,0.0,222.7,58,0.00,,,0.00,VWS V14.01,2013-03-30 01:07:00,
2013-03-29 21:12:00,44.5,30.8,30.10,WNW,301,0.0,222.7,58,0.00,,,0.00,VWS V14.01,2013-03-30 01:12:00,
2013-03-29 21:18:00,44.4,30.9,30.10,WNW,301,0.0,222.7,59,0.00,,,0.00,VWS V14.01,2013-03-30 01:18:00,
2013-03-29 21:23:00,44.2,30.9,30.10,WNW,301,0.0,222.7,59,0.00,,,0.00,VWS V14.01,2013-03-30 01:23:00,
2013-03-29 21:28:00,44.2,31.0,30.10,WNW,301,0.0,222.7,60,0.00,,,0.00,VWS V14.01,2013-03-30 01:28:00,
2013-03-29 21:34:00,44.1,31.2,30.10,WNW,301,0.0,222.7,60,0.00,,,0.00,VWS V14.01,2013-03-30 01:34:00,
2013-03-29 21:39:00,44.1,31.2,30.10,WNW,301,0.0,222.7,60,0.00,,,0.00,VWS V14.01,2013-03-30 01:39:00,
2013-03-29 21:44:00,44.0,31.2,30.10,WNW,301,0.0,222.7,60,0.00,,,0.00,VWS V14.01,2013-03-30 01:44:00,
2013-03-29 21:50:00,44.0,31.1,30.10,WNW,301,0.0,222.7,60,0.00,,,0.00,VWS V14.01,2013-03-30 01:50:00,
2013-03-29 21:55:00,44.0,31.1,30.10,NW,309,0.0,222.7,60,0.00,,,0.00,VWS V14.01,2013-03-30 01:55:00,
2013-03-29 22:00:00,44.0,31.1,30.10,NW,309,0.0,222.7,60,0.00,,,0.00,VWS V14.01,2013-03-30 02:00:00,
2013-03-29 22:06:00,43.9,31.1,30.10,WNW,302,0.0,222.7,60,0.00,,,0.00,VWS V14.01,2013-03-30 02:06:00,
2013-03-29 22:11:00,43.9,31.2,30.10,WNW,302,0.0,222.7,61,0.00,,,0.00,VWS V14.01,2013-03-30 02:11:00,
2013-03-29 22:17:00,43.8,31.2,30.10,WSW,243,0.0,222.7,61,0.00,,,0.00,VWS V14.01,2013-03-30 02:17:00,
2013-03-29 22:22:00,43.8,31.1,30.10,NW,308,0.0,222.7,61,0.00,,,0.00,VWS V14.01,2013-03-30 02:22:00,
2013-03-29 22:28:00,43.7,30.9,30.10,West,264,0.0,222.7,60,0.00,,,0.00,VWS V14.01,2013-03-30 02:28:00,
2013-03-29 22:33:00,43.5,30.9,30.10,NW,307,5.2,222.7,61,0.00,,,0.00,VWS V14.01,2013-03-30 02:33:00,
2013-03-29 22:38:00,43.5,31.0,30.10,WSW,250,0.0,222.7,61,0.00,,,0.00,VWS V14.01,2013-03-30 02:38:00,
2013-03-29 22:44:00,43.3,30.6,30.10,North,357,3.4,222.7,61,0.00,,,0.00,VWS V14.01,2013-03-30 02:44:00,
2013-03-29 22:49:00,43.3,30.8,30.11,WNW,298,0.0,222.7,61,0.00,,,0.00,VWS V14.01,2013-03-30 02:49:00,
2013-03-29 22:54:00,43.1,30.6,30.11,NW,305,0.0,222.7,61,0.00,,,0.00,VWS V14.01,2013-03-30 02:54:00,
2013-03-29 23:00:00,43.1,30.6,30.11,North,356,0.0,222.7,61,0.00,,,0.00,VWS V14.01,2013-03-30 03:00:00,
2013-03-29 23:05:00,43.0,30.6,30.11,NNE,21,5.0,222.7,61,0.00,,,0.00,VWS V14.01,2013-03-30 03:05:00,
2013-03-29 23:10:00,42.9,30.7,30.11,NNE,14,0.0,222.7,62,0.00,,,0.00,VWS V14.01,2013-03-30 03:10:00,
2013-03-29 23:15:00,42.8,30.7,30.11,NW,308,0.0,222.7,62,0.00,,,0.00,VWS V14.01,2013-03-30 03:15:00,
2013-03-29 23:21:00,42.7,30.8,30.11,West,276,0.0,222.7,62,0.00,,,0.00,VWS V14.01,2013-03-30 03:21:00,
2013-03-29 23:26:00,42.6,30.9,30.11,NW,307,4.7,222.7,63,0.00,,,0.00,VWS V14.01,2013-03-30 03:26:00,
2013-03-29 23:31:00,42.5,30.9,30.11,NW,308,0.0,222.7,63,0.00,,,0.00,VWS V14.01,2013-03-30 03:31:00,
2013-03-29 23:36:00,42.5,31.1,30.11,NW,309,0.0,222.7,64,0.00,,,0.00,VWS V14.01,2013-03-30 03:36:00,
2013-03-29 23:41:00,42.4,31.1,30.11,NW,316,0.0,222.7,64,0.00,,,0.00,VWS V14.01,2013-03-30 03:41:00,
2013-03-29 23:47:00,42.2,31.1,30.11,NNW,335,5.7,222.7,64,0.00,,,0.00,VWS V14.01,2013-03-30 03:47:00,
2013-03-29 23:52:00,42.1,31.1,30.11,NW,322,0.0,222.7,65,0.00,,,0.00,VWS V14.01,2013-03-30 03:52:00,
2013-03-29 23:57:00,42.0,31.1,30.11,WNW,298,0.0,222.7,65,0.00,,,0.00,VWS V14.01,2013-03-30 03:57:00,